Showing default

GOES 14, 35491

Orbit data source: Space-Track

GOES 14, 35491 is a payload satellite owned by NOAA (US) in GEO that was launched on Sat, 27 Jun 2009 UTC via a DELTA 4M+(4,2) launch vehicle from the Air Force Eastern Test Range (AFETR). Payload-class satellites include a variety of spacecraft equipped with specific instruments for various scientific and technological missions. These include communications satellites like Starlink; space stations such as the ISS; scientific satellites like the Hubble; Earth observation satellites from companies like Planet Labs, Umbra, and HawkEye 360; GPS; miniature CubeSats for education and research; and military/defense satellites.

Loading next visibility...
Identifier
35491, 2009-033A
Orbit
GEO
Country
Flag of USUS
Related business
Manufacturer
Boeing/ES
Mission
On reserve Civil Weather
Bus & Motor
HS-601, R-4D?
Mass
3,209 kg wet, 1,543 kg dry
Launch date (UTC)
2009-06-27 (17 years ago)
Launch vehicle
DELTA 4M+(4,2)
Launch site
Air Force Eastern Test Range (AFETR)
Object type
Payload
Rocket body
Debris
Shape & HBR
Box + 1 Pan + 1 Ant, 15.0 m
Radar Cross Section
14.281 m², Large (>1 m²)

Expand to show TLE details & history
Last TLE update: 10 hours ago

TLE from 10 hours ago
0 GOES 14
1 35491U 09033A   26061.69960778  .00000113  00000-0  00000+0 0  9998
2 35491   1.4145  84.4453 0002160 295.0799 235.5458  1.00123384  5523
Epoch: 2026-03-02T16:47Z
TLE epoch observation values (Epoch: 2026-03-02T16:47:26.112Z)
Latitude
0.25531°
Longitude
-157.25971°
Altitude
35,832.823 km
Speed
3.073 km/s
True Right ascension
17h 00m 21s
True Declination
0° 15' 18"
Sunlit
Object was in daylight at epoch
Visualization orbit readout
Latitude
Unknown
Longitude
Unknown
Altitude
Unknown
Speed
Unknown
Apparent Right ascension
Unknown
Apparent Declination
Unknown
Sunlit
N/A
Visualization observer readout
Local Sidereal Time
06:55:57
Azimuth
Unknown
Elevation
Unknown
Doppler factor
Unknown
Orbital elements
Apogee altitude
35,838.434 km
Perigee altitude
35,820.2 km
Semi-major axis
42,207.454 km
Eccentricity
0.00022
Inclination
1.4145°
RAAN
84.4453°
Arg. of periapsis
295.0799°
True anomaly
235.52539°
Mean anomaly
235.5458°
Eccentric anomaly
235.5356°
Mean motion
0.2503 °/min
Orbital period
1,438.28 mins
BSTAR
0
Loading maneuver chart data...
Computing Atmospheric mass density...
Loading historical data...
Loading historical data...
Loading historical data...
Loading historical data...
Loading historical data...
Loading historical data...
Loading historical data...
Other satellites on launch #33 in the year 2009 (2009-06-27 UTC)

Documentation

Showing up to 5 results
|